WESTFORD NEEDLES, 2375

Orbit data source: Space-Track

WESTFORD NEEDLES, 2375 is space debris in LEO originally from a launch on Thu, 09 May 1963 UTC launched from the Air Force Western Test Range (AFWTR). Debris objects in space refer to the collection of defunct objects orbiting the Earth. Examples of debris include non-operational satellites, rocket bodies, and fragments generated from explosions, collisions, or faulty payload assembly.

Loading next visibility...
Identifier
2375, 1963-014W
Orbit
LEO
Country
Flag of USUS
Related business
Manufacturer
Unknown
Mission
Spacecraft
Bus & Motor
Unknown
Mass
Unknown
Launch date (UTC)
1963-05-09 (63 years ago)
Launch vehicle
Unknown
Launch site
Air Force Western Test Range (AFWTR)
Object type
Payload
Rocket body
Debris
Shape & HBR
Unknown shape, 0.3 m
Radar Cross Section
Medium (>0.1 m² and <1 m²)

Expand to show TLE details & history
Last TLE update: 2 days ago

TLE from 2 days ago
0 WESTFORD NEEDLES
1 02375U 63014W   26234.46452021  .00000513  00000-0  54616-1 0  9994
2 02375  86.5981  43.4982 1641120 102.5990 276.2689  8.74989200377225
Epoch: 2026-08-22T11:08Z
TLE epoch observation values (Epoch: 2026-08-22T11:08:54.546Z)
Latitude
0.00001°
Longitude
-94.50362°
Altitude
3,660.999 km
Speed
6.274 km/s
True Right ascension
02h 53m 59s
True Declination
0° 00' 00"
Sunlit
Object was in daylight at epoch
Visualization orbit readout
Latitude
Unknown
Longitude
Unknown
Altitude
Unknown
Speed
Unknown
Apparent Right ascension
Unknown
Apparent Declination
Unknown
Sunlit
N/A
Visualization observer readout
Local Sidereal Time
15:53:04
Azimuth
Unknown
Elevation
Unknown
Doppler factor
Unknown
Orbital elements
Apogee altitude
5,199.737 km
Perigee altitude
1,935.329 km
Semi-major axis
9,945.67 km
Eccentricity
0.16411
Inclination
86.5981°
RAAN
43.4982°
Arg. of periapsis
102.599°
True anomaly
257.49023°
Mean anomaly
276.2689°
Eccentric anomaly
266.87991°
Mean motion
2.18823 °/min
Orbital period
164.52 mins
BSTAR
0.054616
Loading maneuver chart data...
Computing Atmospheric mass density...

Documentation

Showing up to 5 results
|